Weather History for KBFI - October, 2011

Change the Weather History Date:

Friday, October 14, 2011

  Actual Average (KSEA) Record (KSEA)
Temperature  
Mean Temperature 52 °F 53 °F  
Max Temperature 57 °F 60 °F 80 °F (1961)
Min Temperature 50 °F 46 °F 36 °F (1949)
Degree Days  
Heating Degree Days 12 12  
Month to date heating degree days 139  
Since 1 July heating degree days 356  
Cooling Degree Days 0 0  
Month to date cooling degree days 0  
Year to date cooling degree days 189  
Growing Degree Days 2 (Base 50)    
Moisture  
Dew Point 46 °F    
Average Humidity 80    
Maximum Humidity 89    
Minimum Humidity 69    
Precipitation  
Precipitation 0.01 in 0.11 in 0.77 in (1990)
Month to date precipitation 1.18  
Year to date precipitation 23.27  
Snow  
Snow 0.00 in - - ()
Month to date snowfall  
Since 1 July snowfall  
Snow Depth -    
Sea Level Pressure  
Sea Level Pressure 30.01 in    
Wind  
Wind Speed 4 mph (NNW)    
Max Wind Speed 7 mph    
Max Gust Speed -    
Visibility 10 miles    
Events      
T = Trace of Precipitation, MM = Missing Value Source: NWS Daily Summary

Daily Weather History Graph

Daily Weather History Graph

Search for Another Location

Airport or City:

Trip Planner

Search our weather history database for the weather conditions in past years. The results will help you decide how hot, cold, wet, or windy it might be!

Date:

Astronomy

Oct. 14, 2011 Rise Set
Actual Time 7:26 AM PDT 6:23 PM PDT
Civil Twilight 6:55 AM PDT 6:54 PM PDT
Nautical Twilight 6:19 AM PDT 7:29 PM PDT
Astronomical Twilight 5:43 AM PDT 8:05 PM PDT
Moon 7:24 PM PDT (10/14) 10:15 AM PDT (10/14)
Length of Visible Light 11h 59m
Length of Day
10h 57m
Waning Gibbous, 94% of the Moon is Illuminated
Oct 14
Waning Gibbous
Oct 19
Last Quarter
Oct 26
New
Nov 2
First Quarter
Nov 10
Full

Hourly Weather History & Observations

Time (PDT) Temp. Dew Point Humidity Pressure Visibility Wind Dir Wind Speed Gust Speed Precip Events Conditions
12:53 AM 51.1 °F 44.1 °F 77% 30.04 in 10.0 mi NNW 6.9 mph - N/A   Mostly Cloudy
1:53 AM 50.0 °F 45.0 °F 83% 30.04 in 10.0 mi NNW 3.5 mph - N/A   Mostly Cloudy
2:53 AM 50.0 °F 45.0 °F 83% 30.03 in 10.0 mi North 4.6 mph - N/A   Overcast
3:43 AM 50.0 °F 44.6 °F 82% 30.02 in 10.0 mi NNW 3.5 mph - N/A   Mostly Cloudy
3:53 AM 50.0 °F 45.0 °F 83% 30.02 in 10.0 mi NNW 5.8 mph - N/A   Overcast
4:29 AM 50.0 °F 46.4 °F 87% 30.02 in 10.0 mi Variable 3.5 mph - N/A   Overcast
4:53 AM 50.0 °F 46.0 °F 86% 30.02 in 10.0 mi North 5.8 mph - N/A   Overcast
5:53 AM 51.8 °F 46.4 °F 82% 30.02 in 10.0 mi Variable 3.5 mph - N/A   Overcast
6:45 AM 50.0 °F 46.4 °F 87% 30.01 in 10.0 mi Variable 3.5 mph - N/A   Overcast
6:53 AM 50.0 °F 46.9 °F 89% 30.01 in 10.0 mi Calm Calm - N/A   Overcast
7:53 AM 51.1 °F 46.9 °F 86% 30.01 in 10.0 mi North 3.5 mph - 0.00 in   Overcast
8:53 AM 51.1 °F 46.9 °F 86% 30.02 in 10.0 mi North 3.5 mph - 0.01 in   Overcast
9:53 AM 52.0 °F 48.0 °F 86% 30.02 in 10.0 mi Variable 3.5 mph - N/A   Overcast
10:53 AM 52.0 °F 46.9 °F 83% 30.02 in 10.0 mi North 3.5 mph - N/A   Overcast
11:53 AM 53.6 °F 46.4 °F 77% 30.01 in 10.0 mi NNW 3.5 mph - N/A   Overcast
12:53 PM 55.0 °F 46.9 °F 74% 30.01 in 10.0 mi NW 5.8 mph - N/A   Mostly Cloudy
1:53 PM 55.9 °F 46.0 °F 69% 30.00 in 10.0 mi Calm Calm - N/A   Clear
2:53 PM 55.9 °F 46.9 °F 72% 29.99 in 10.0 mi NW 4.6 mph - N/A   Clear
3:53 PM 55.9 °F 46.0 °F 69% 29.99 in 10.0 mi NW 5.8 mph - N/A   Clear
4:53 PM 54.0 °F 46.0 °F 75% 29.99 in 10.0 mi NW 5.8 mph - N/A   Partly Cloudy
5:53 PM 54.0 °F 45.0 °F 72% 29.98 in 10.0 mi NW 4.6 mph - N/A   Clear
6:53 PM 53.1 °F 45.0 °F 74% 29.98 in 10.0 mi NW 4.6 mph - N/A   Clear
7:53 PM 52.0 °F 45.0 °F 77% 29.99 in 10.0 mi NW 3.5 mph - N/A   Clear
8:53 PM 52.0 °F 46.0 °F 80% 29.99 in 10.0 mi Calm Calm - N/A   Clear
9:53 PM 51.8 °F 44.6 °F 76% 30.00 in 10.0 mi Calm Calm - N/A   Clear
10:53 PM 51.1 °F 45.0 °F 80% 30.01 in 10.0 mi Calm Calm - N/A   Clear
11:53 PM 50.0 °F 45.0 °F 83% 30.02 in 10.0 mi North 3.5 mph - N/A   Clear